Météo par heure à Al-Jahra

Ce jour, 24 Octobre, Samedi

Heure Température Précipitation Vent Pression Humidité
00:00 +27°C° 0 mm 4 m/s 753 mmHg 13%
01:00 +26°C° 0 mm 4 m/s 753 mmHg 15%
02:00 +25°C° 0 mm 4 m/s 752 mmHg 17%
03:00 +23°C° 0 mm 5 m/s 752 mmHg 19%
04:00 +23°C° 0 mm 5 m/s 753 mmHg 21%
05:00 +22°C° 0 mm 4 m/s 753 mmHg 23%
06:00 +22°C° 0 mm 4 m/s 753 mmHg 25%
07:00 +25°C° 0 mm 4 m/s 753 mmHg 22%
08:00 +28°C° 0 mm 3 m/s 754 mmHg 19%
09:00 +30°C° 0 mm 3 m/s 754 mmHg 16%
10:00 +32°C° 0 mm 2 m/s 754 mmHg 14%
11:00 +34°C° 0 mm 2 m/s 754 mmHg 12%
12:00 +35°C° 0 mm 1 m/s 754 mmHg 10%
13:00 +36°C° 0 mm 2 m/s 753 mmHg 10%
14:00 +37°C° 0 mm 2 m/s 753 mmHg 10%
15:00 +37°C° 0 mm 3 m/s 753 mmHg 10%
16:00 +35°C° 0 mm 3 m/s 753 mmHg 14%
17:00 +31°C° 0 mm 3 m/s 753 mmHg 18%
18:00 +29°C° 0 mm 4 m/s 753 mmHg 22%
19:00 +28°C° 0 mm 4 m/s 753 mmHg 26%
20:00 +27°C° 0 mm 4 m/s 754 mmHg 29%
21:00 +26°C° 0 mm 3 m/s 754 mmHg 33%
22:00 +26°C° 0 mm 4 m/s 754 mmHg 30%
23:00 +26°C° 0 mm 4 m/s 754 mmHg 28%

Demain, 25 Octobre, Dimanche

Heure Température Précipitation Vent Pression Humidité
00:00 +26°C° 0 mm 4 m/s 754 mmHg 26%
01:00 +25°C° 0 mm 4 m/s 754 mmHg 24%
02:00 +25°C° 0 mm 3 m/s 754 mmHg 22%
03:00 +24°C° 0 mm 3 m/s 754 mmHg 20%
04:00 +24°C° 0 mm 3 m/s 754 mmHg 19%
05:00 +23°C° 0 mm 2 m/s 754 mmHg 17%
06:00 +21°C° 0 mm 2 m/s 754 mmHg 15%
07:00 +25°C° 0 mm 2 m/s 755 mmHg 13%
08:00 +28°C° 0 mm 2 m/s 755 mmHg 11%
09:00 +30°C° 0 mm 2 m/s 756 mmHg 8%
10:00 +32°C° 0 mm 2 m/s 755 mmHg 8%
11:00 +34°C° 0 mm 1 m/s 755 mmHg 7%
12:00 +35°C° 0 mm 1 m/s 754 mmHg 7%
13:00 +36°C° 0 mm 2 m/s 754 mmHg 7%
14:00 +37°C° 0 mm 2 m/s 753 mmHg 7%
15:00 +37°C° 0 mm 3 m/s 753 mmHg 8%
16:00 +34°C° 0 mm 3 m/s 753 mmHg 12%
17:00 +31°C° 0 mm 3 m/s 753 mmHg 17%
18:00 +28°C° 0 mm 4 m/s 753 mmHg 22%
19:00 +27°C° 0 mm 4 m/s 753 mmHg 25%
20:00 +27°C° 0 mm 4 m/s 754 mmHg 29%
21:00 +26°C° 0 mm 3 m/s 754 mmHg 33%
22:00 +26°C° 0 mm 3 m/s 754 mmHg 33%
23:00 +26°C° 0 mm 3 m/s 754 mmHg 34%

Après-demain, 26 Octobre, Lundi

Heure Température Précipitation Vent Pression Humidité
00:00 +25°C° 0 mm 3 m/s 754 mmHg 34%
01:00 +25°C° 0 mm 3 m/s 754 mmHg 32%
02:00 +25°C° 0 mm 3 m/s 754 mmHg 31%
03:00 +25°C° 0 mm 3 m/s 754 mmHg 29%
04:00 +25°C° 0 mm 3 m/s 754 mmHg 30%
05:00 +24°C° 0 mm 3 m/s 755 mmHg 31%
06:00 +24°C° 0 mm 3 m/s 755 mmHg 32%
07:00 +26°C° 0 mm 3 m/s 755 mmHg 28%
08:00 +29°C° 0 mm 3 m/s 756 mmHg 25%
09:00 +31°C° 0 mm 3 m/s 756 mmHg 22%
10:00 +34°C° 0 mm 2 m/s 755 mmHg 19%
11:00 +35°C° 0 mm 2 m/s 755 mmHg 17%
12:00 +36°C° 0 mm 2 m/s 755 mmHg 14%
13:00 +37°C° 0 mm 2 m/s 754 mmHg 14%
14:00 +37°C° 0 mm 3 m/s 754 mmHg 15%
15:00 +37°C° 0 mm 3 m/s 753 mmHg 15%
16:00 +34°C° 0 mm 3 m/s 753 mmHg 20%
17:00 +31°C° 0 mm 3 m/s 753 mmHg 24%
18:00 +29°C° 0 mm 3 m/s 754 mmHg 29%
19:00 +28°C° 0 mm 3 m/s 754 mmHg 30%
20:00 +28°C° 0 mm 3 m/s 754 mmHg 32%
21:00 +27°C° 0 mm 3 m/s 754 mmHg 33%
22:00 +27°C° 0 mm 3 m/s 754 mmHg 32%
23:00 +26°C° 0 mm 3 m/s 754 mmHg 31%

, 27 Octobre, Mardi

Heure Température Précipitation Vent Pression Humidité
00:00 +26°C° 0 mm 3 m/s 754 mmHg 31%
01:00 +26°C° 0 mm 3 m/s 754 mmHg 31%
02:00 +26°C° 0 mm 3 m/s 753 mmHg 32%
03:00 +26°C° 0 mm 3 m/s 753 mmHg 32%
04:00 +25°C° 0 mm 4 m/s 754 mmHg 32%
05:00 +25°C° 0 mm 4 m/s 754 mmHg 31%
06:00 +25°C° 0 mm 4 m/s 754 mmHg 31%
07:00 +27°C° 0 mm 4 m/s 754 mmHg 25%
08:00 +29°C° 0 mm 4 m/s 755 mmHg 20%
09:00 +33°C° 0 mm 4 m/s 755 mmHg 14%
10:00 +34°C° 0 mm 3 m/s 755 mmHg 13%
11:00 +36°C° 0 mm 3 m/s 754 mmHg 12%
12:00 +37°C° 0 mm 2 m/s 754 mmHg 11%
13:00 +37°C° 0 mm 2 m/s 754 mmHg 10%
14:00 +37°C° 0 mm 2 m/s 753 mmHg 10%
15:00 +38°C° 0 mm 2 m/s 753 mmHg 10%
16:00 +35°C° 0 mm 2 m/s 753 mmHg 12%
17:00 +32°C° 0 mm 2 m/s 753 mmHg 14%
18:00 +29°C° 0 mm 2 m/s 753 mmHg 17%
19:00 +28°C° 0 mm 2 m/s 753 mmHg 17%
20:00 +28°C° 0 mm 2 m/s 753 mmHg 17%
21:00 +27°C° 0 mm 2 m/s 753 mmHg 17%
22:00 +27°C° 0 mm 3 m/s 753 mmHg 16%
23:00 +27°C° 0 mm 3 m/s 753 mmHg 15%

27 Octobre, Mardi

Heure Température Précipitation Vent Pression Humidité
00:00 +26°C° 0 mm 3 m/s 754 mmHg 31%
01:00 +26°C° 0 mm 3 m/s 754 mmHg 31%
02:00 +26°C° 0 mm 3 m/s 753 mmHg 32%
03:00 +26°C° 0 mm 3 m/s 753 mmHg 32%
04:00 +25°C° 0 mm 4 m/s 754 mmHg 32%
05:00 +25°C° 0 mm 4 m/s 754 mmHg 31%
06:00 +25°C° 0 mm 4 m/s 754 mmHg 31%
07:00 +27°C° 0 mm 4 m/s 754 mmHg 25%
08:00 +29°C° 0 mm 4 m/s 755 mmHg 20%
09:00 +33°C° 0 mm 4 m/s 755 mmHg 14%
10:00 +34°C° 0 mm 3 m/s 755 mmHg 13%
11:00 +36°C° 0 mm 3 m/s 754 mmHg 12%
12:00 +37°C° 0 mm 2 m/s 754 mmHg 11%
13:00 +37°C° 0 mm 2 m/s 754 mmHg 10%
14:00 +37°C° 0 mm 2 m/s 753 mmHg 10%
15:00 +38°C° 0 mm 2 m/s 753 mmHg 10%
16:00 +35°C° 0 mm 2 m/s 753 mmHg 12%
17:00 +32°C° 0 mm 2 m/s 753 mmHg 14%
18:00 +29°C° 0 mm 2 m/s 753 mmHg 17%
19:00 +28°C° 0 mm 2 m/s 753 mmHg 17%
20:00 +28°C° 0 mm 2 m/s 753 mmHg 17%
21:00 +27°C° 0 mm 2 m/s 753 mmHg 17%
22:00 +27°C° 0 mm 3 m/s 753 mmHg 16%
23:00 +27°C° 0 mm 3 m/s 753 mmHg 15%

28 Octobre, Mercredi

Heure Température Précipitation Vent Pression Humidité
00:00 +27°C° 0 mm 3 m/s 753 mmHg 14%
01:00 +26°C° 0 mm 3 m/s 753 mmHg 14%
02:00 +26°C° 0 mm 4 m/s 753 mmHg 15%
03:00 +25°C° 0 mm 4 m/s 753 mmHg 16%
04:00 +25°C° 0 mm 3 m/s 753 mmHg 16%
05:00 +24°C° 0 mm 3 m/s 753 mmHg 17%
06:00 +24°C° 0 mm 3 m/s 754 mmHg 17%
07:00 +26°C° 0 mm 3 m/s 754 mmHg 15%
08:00 +29°C° 0 mm 2 m/s 755 mmHg 13%
09:00 +31°C° 0 mm 2 m/s 755 mmHg 11%
10:00 +34°C° 0 mm 2 m/s 755 mmHg 11%
11:00 +35°C° 0 mm 2 m/s 754 mmHg 10%
12:00 +37°C° 0 mm 2 m/s 754 mmHg 9%
13:00 +37°C° 0 mm 2 m/s 754 mmHg 9%
14:00 +37°C° 0 mm 3 m/s 754 mmHg 9%
15:00 +37°C° 0 mm 3 m/s 753 mmHg 9%
16:00 +35°C° 0 mm 3 m/s 753 mmHg 9%
17:00 +33°C° 0 mm 3 m/s 753 mmHg 10%
18:00 +30°C° 0 mm 3 m/s 753 mmHg 11%
19:00 +29°C° 0 mm 3 m/s 754 mmHg 12%
20:00 +28°C° 0 mm 3 m/s 754 mmHg 13%
21:00 +27°C° 0 mm 2 m/s 754 mmHg 13%
22:00 +27°C° 0 mm 3 m/s 754 mmHg 14%
23:00 +27°C° 0 mm 3 m/s 754 mmHg 14%

29 Octobre, Jeudi

Heure Température Précipitation Vent Pression Humidité
00:00 +27°C° 0 mm 4 m/s 754 mmHg 14%
01:00 +26°C° 0 mm 4 m/s 754 mmHg 14%
02:00 +25°C° 0 mm 4 m/s 754 mmHg 15%
03:00 +25°C° 0 mm 4 m/s 754 mmHg 15%
04:00 +24°C° 0 mm 3 m/s 754 mmHg 16%
05:00 +22°C° 0 mm 3 m/s 754 mmHg 16%
06:00 +22°C° 0 mm 3 m/s 755 mmHg 17%
07:00 +25°C° 0 mm 3 m/s 755 mmHg 15%
08:00 +27°C° 0 mm 2 m/s 755 mmHg 13%
09:00 +29°C° 0 mm 2 m/s 756 mmHg 11%
10:00 +31°C° 0 mm 2 m/s 756 mmHg 10%
11:00 +33°C° 0 mm 1 m/s 755 mmHg 9%
12:00 +34°C° 0 mm 1 m/s 755 mmHg 8%
13:00 +35°C° 0 mm 1 m/s 755 mmHg 8%
14:00 +35°C° 0 mm 1 m/s 754 mmHg 8%
15:00 +35°C° 0 mm 1 m/s 754 mmHg 8%
16:00 +34°C° 0 mm 2 m/s 754 mmHg 11%
17:00 +30°C° 0 mm 2 m/s 754 mmHg 14%
18:00 +27°C° 0 mm 2 m/s 754 mmHg 16%
19:00 +27°C° 0 mm 2 m/s 755 mmHg 18%
20:00 +26°C° 0 mm 3 m/s 755 mmHg 19%
21:00 +26°C° 0 mm 3 m/s 755 mmHg 20%
22:00 +26°C° 0 mm 3 m/s 755 mmHg 20%
23:00 +25°C° 0 mm 3 m/s 755 mmHg 21%
Voir plus

Nous avons besoin de votre consentement

Meteoprog et ses fournisseurs de services peuvent stocker et accéder à des données personnelles telles que des cookies, des identifiants d'appareils ou d'autres technologies similaires sur votre appareil et traiter ces données pour personnaliser le contenu et les publicités, ainsi que pour fournir des fonctionnalités de médias sociaux et analyser le trafic.

  • Stocker et/ou accéder à des informations sur votre appareil

    Des cookies, des identifiants d'appareils ou d'autres informations peuvent être stockés ou accessibles sur votre appareil aux fins indiquées ci-dessus.

  • Annonces et contenus personnalisés, mesure des annonces et des contenus, connaissance de l'audience et développement de produits

    Les annonces et le contenu peuvent être personnalisés en fonction d'un profil. D'autres données peuvent être ajoutées pour mieux personnaliser les annonces et le contenu. Les performances des publicités et du contenu peuvent être mesurées. Il est possible d'obtenir des informations sur le public qui a vu les publicités et le contenu. Ces données peuvent être utilisées pour développer ou améliorer l'expérience de l'utilisateur, les systèmes et les logiciels.

En cliquant sur "J'accepte", vous autorisez l'utilisation de cookies, des identifiants d'appareils, des balises web ou d'autres technologies similaires. Vos paramètres peuvent être modifiés dans le navigateur de votre appareil.

Dans certains cas, des intérêts légitimes peuvent être invoqués plutôt qu'un consentement. Vous pouvez en savoir plus à ce sujet dans notre Politique de confidentialité et de cookies.